Time,TemperatureF,DewpointF,PressureIn,WindDirection,WindDirectionDegrees,WindSpeedMPH,WindSpeedGustMPH,Humidity,HourlyPrecipIn,Conditions,Clouds,dailyrainin,SoftwareType,DateUTC
2013-07-20 00:01:00,61.0,55.0,29.88,West,275,0.0,-999.0,82,-99.99,,,-99.99,,2013-07-20 07:01:00,
2013-07-20 00:12:00,61.0,55.0,29.88,West,276,0.0,-999.0,82,-99.99,,,-99.99,,2013-07-20 07:12:00,
2013-07-20 00:22:00,61.0,55.0,29.88,West,275,0.0,-999.0,82,-99.99,,,-99.99,,2013-07-20 07:22:00,
2013-07-20 00:33:00,61.0,55.0,29.88,West,275,0.0,-999.0,82,-99.99,,,-99.99,,2013-07-20 07:33:00,
2013-07-20 00:44:00,61.0,55.0,29.88,West,275,0.0,-999.0,82,-99.99,,,-99.99,,2013-07-20 07:44:00,
2013-07-20 00:54:00,60.0,55.0,29.88,West,275,0.0,-999.0,83,-99.99,,,-99.99,,2013-07-20 07:54:00,
2013-07-20 01:01:00,60.0,55.0,29.88,West,275,0.0,-999.0,83,-99.99,,,-99.99,,2013-07-20 08:01:00,
2013-07-20 01:11:00,60.0,55.0,29.88,West,275,0.0,-999.0,83,-99.99,,,-99.99,,2013-07-20 08:11:00,
2013-07-20 01:32:00,60.0,55.0,29.88,West,275,0.0,-999.0,84,-99.99,,,-99.99,,2013-07-20 08:32:00,
2013-07-20 01:44:00,60.0,55.0,29.88,West,275,0.0,-999.0,85,-99.99,,,-99.99,,2013-07-20 08:44:00,
2013-07-20 01:52:00,59.0,54.0,29.88,West,275,0.0,-999.0,85,-99.99,,,-99.99,,2013-07-20 08:52:00,
2013-07-20 02:01:00,59.0,54.0,29.88,West,275,0.0,-999.0,85,-99.99,,,-99.99,,2013-07-20 09:01:00,
2013-07-20 02:11:00,59.0,54.0,29.88,West,275,0.0,-999.0,85,-99.99,,,-99.99,,2013-07-20 09:11:00,
2013-07-20 02:22:00,59.0,54.0,29.88,West,275,0.0,-999.0,85,-99.99,,,-99.99,,2013-07-20 09:22:00,
2013-07-20 02:33:00,59.0,54.0,29.87,West,275,0.0,-999.0,85,-99.99,,,-99.99,,2013-07-20 09:33:00,
2013-07-20 02:43:00,59.0,54.0,29.87,West,275,0.0,-999.0,85,-99.99,,,-99.99,,2013-07-20 09:43:00,
2013-07-20 02:53:00,58.0,54.0,29.87,West,275,0.0,-999.0,86,-99.99,,,-99.99,,2013-07-20 09:53:00,
2013-07-20 03:01:00,59.0,55.0,29.88,West,275,0.0,-999.0,86,-99.99,,,-99.99,,2013-07-20 10:01:00,
2013-07-20 03:11:00,59.0,55.0,29.88,West,275,0.0,-999.0,86,-99.99,,,-99.99,,2013-07-20 10:11:00,
2013-07-20 03:21:00,59.0,55.0,29.87,West,275,0.0,-999.0,86,-99.99,,,-99.99,,2013-07-20 10:21:00,
2013-07-20 03:32:00,58.0,54.0,29.87,West,275,0.0,-999.0,86,-99.99,,,-99.99,,2013-07-20 10:32:00,
2013-07-20 03:42:00,58.0,54.0,29.87,West,275,0.0,-999.0,86,-99.99,,,-99.99,,2013-07-20 10:42:00,
2013-07-20 03:52:00,58.0,54.0,29.87,West,275,0.0,-999.0,87,-99.99,,,-99.99,,2013-07-20 10:52:00,
2013-07-20 04:01:00,58.0,54.0,29.86,West,275,0.0,-999.0,87,-99.99,,,-99.99,,2013-07-20 11:01:00,
2013-07-20 04:11:00,58.0,54.0,29.86,West,275,0.0,-999.0,87,-99.99,,,-99.99,,2013-07-20 11:11:00,
2013-07-20 04:21:00,58.0,54.0,29.86,West,275,0.0,-999.0,87,-99.99,,,-99.99,,2013-07-20 11:21:00,
2013-07-20 04:32:00,58.0,54.0,29.86,West,275,0.0,-999.0,87,-99.99,,,-99.99,,2013-07-20 11:32:00,
2013-07-20 04:43:00,58.0,54.0,29.86,West,275,0.0,-999.0,87,-99.99,,,-99.99,,2013-07-20 11:43:00,
2013-07-20 04:52:00,58.0,54.0,29.86,West,275,0.0,-999.0,87,-99.99,,,-99.99,,2013-07-20 11:52:00,
2013-07-20 05:01:00,57.0,53.0,29.86,West,275,0.0,-999.0,87,-99.99,,,-99.99,,2013-07-20 12:01:00,
2013-07-20 05:11:00,57.0,53.0,29.86,West,275,0.0,-999.0,87,-99.99,,,-99.99,,2013-07-20 12:11:00,
2013-07-20 05:22:00,57.0,53.0,29.85,West,275,0.0,-999.0,87,-99.99,,,-99.99,,2013-07-20 12:22:00,
2013-07-20 05:32:00,57.0,53.0,29.85,West,275,0.0,-999.0,88,-99.99,,,-99.99,,2013-07-20 12:32:00,
2013-07-20 05:52:00,57.0,53.0,29.86,West,275,0.0,-999.0,88,-99.99,,,-99.99,,2013-07-20 12:52:00,
2013-07-20 06:01:00,57.0,53.0,29.86,West,275,0.0,-999.0,88,-99.99,,,-99.99,,2013-07-20 13:01:00,
2013-07-20 06:11:00,56.0,52.0,29.86,West,275,0.0,-999.0,88,-99.99,,,-99.99,,2013-07-20 13:11:00,
2013-07-20 06:22:00,56.0,52.0,29.86,West,275,0.0,-999.0,88,-99.99,,,-99.99,,2013-07-20 13:22:00,
2013-07-20 06:43:00,56.0,53.0,29.86,West,275,0.0,-999.0,89,-99.99,,,-99.99,,2013-07-20 13:43:00,
2013-07-20 06:53:00,56.0,53.0,29.86,West,275,0.0,-999.0,89,-99.99,,,-99.99,,2013-07-20 13:53:00,
2013-07-20 07:02:00,56.0,53.0,29.86,West,275,0.0,-999.0,89,-99.99,,,-99.99,,2013-07-20 14:02:00,
2013-07-20 07:11:00,57.0,54.0,29.87,West,275,0.0,-999.0,89,-99.99,,,-99.99,,2013-07-20 14:11:00,
2013-07-20 07:22:00,57.0,54.0,29.88,West,275,0.0,-999.0,89,-99.99,,,-99.99,,2013-07-20 14:22:00,
2013-07-20 07:32:00,57.0,54.0,29.88,West,275,0.0,-999.0,89,-99.99,,,-99.99,,2013-07-20 14:32:00,
2013-07-20 07:43:00,58.0,55.0,29.88,West,275,0.0,-999.0,90,-99.99,,,-99.99,,2013-07-20 14:43:00,
2013-07-20 07:53:00,59.0,56.0,29.89,West,275,0.0,-999.0,89,-99.99,,,-99.99,,2013-07-20 14:53:00,
2013-07-20 08:01:00,59.0,56.0,29.89,West,275,0.0,-999.0,89,-99.99,,,-99.99,,2013-07-20 15:01:00,
2013-07-20 08:11:00,59.0,56.0,29.91,West,275,0.0,-999.0,89,-99.99,,,-99.99,,2013-07-20 15:11:00,
2013-07-20 08:22:00,61.0,57.0,29.89,West,276,0.0,-999.0,88,-99.99,,,-99.99,,2013-07-20 15:22:00,
2013-07-20 08:33:00,62.0,57.0,29.89,West,275,0.0,-999.0,85,-99.99,,,-99.99,,2013-07-20 15:33:00,
2013-07-20 08:44:00,62.0,57.0,29.89,West,275,0.0,-999.0,85,-99.99,,,-99.99,,2013-07-20 15:44:00,
2013-07-20 08:53:00,63.0,57.0,29.89,West,275,0.0,-999.0,82,-99.99,,,-99.99,,2013-07-20 15:53:00,
2013-07-20 09:01:00,65.0,58.0,29.90,West,275,0.0,-999.0,79,-99.99,,,-99.99,,2013-07-20 16:01:00,
2013-07-20 09:11:00,65.0,58.0,29.90,West,275,0.0,-999.0,79,-99.99,,,-99.99,,2013-07-20 16:11:00,
2013-07-20 09:22:00,66.0,57.0,29.89,West,275,0.0,-999.0,74,-99.99,,,-99.99,,2013-07-20 16:22:00,
2013-07-20 09:32:00,67.0,58.0,29.89,West,275,0.0,-999.0,73,-99.99,,,-99.99,,2013-07-20 16:32:00,
2013-07-20 09:43:00,67.0,58.0,29.89,West,275,0.0,-999.0,73,-99.99,,,-99.99,,2013-07-20 16:43:00,
2013-07-20 09:52:00,68.0,58.0,29.88,West,275,0.0,-999.0,71,-99.99,,,-99.99,,2013-07-20 16:52:00,
2013-07-20 10:02:00,70.0,59.0,29.88,West,275,0.0,-999.0,68,-99.99,,,-99.99,,2013-07-20 17:02:00,
2013-07-20 10:11:00,70.0,59.0,29.88,West,275,0.0,-999.0,68,-99.99,,,-99.99,,2013-07-20 17:11:00,
2013-07-20 10:22:00,70.0,59.0,29.88,West,275,0.0,-999.0,68,-99.99,,,-99.99,,2013-07-20 17:22:00,
2013-07-20 10:32:00,71.0,59.0,29.88,West,275,0.0,-999.0,67,-99.99,,,-99.99,,2013-07-20 17:32:00,
2013-07-20 10:43:00,72.0,60.0,29.88,West,275,0.0,-999.0,66,-99.99,,,-99.99,,2013-07-20 17:43:00,
2013-07-20 10:53:00,73.0,61.0,29.88,West,276,0.0,-999.0,65,-99.99,,,-99.99,,2013-07-20 17:53:00,
2013-07-20 11:01:00,73.0,61.0,29.88,West,276,0.0,-999.0,65,-99.99,,,-99.99,,2013-07-20 18:01:00,
2013-07-20 11:11:00,74.0,61.0,29.88,West,275,0.0,-999.0,63,-99.99,,,-99.99,,2013-07-20 18:11:00,
2013-07-20 11:33:00,75.0,62.0,29.87,WSW,244,1.0,-999.0,63,-99.99,,,-99.99,,2013-07-20 18:33:00,
2013-07-20 11:43:00,74.0,61.0,29.88,West,264,1.0,-999.0,65,-99.99,,,-99.99,,2013-07-20 18:43:00,
2013-07-20 11:53:00,75.0,62.0,29.88,West,263,1.0,-999.0,63,-99.99,,,-99.99,,2013-07-20 18:53:00,
2013-07-20 12:02:00,75.0,62.0,29.88,West,263,1.0,-999.0,63,-99.99,,,-99.99,,2013-07-20 19:02:00,
2013-07-20 12:22:00,76.0,62.0,29.87,West,265,1.0,-999.0,61,-99.99,,,-99.99,,2013-07-20 19:22:00,
2013-07-20 12:43:00,78.0,63.0,29.86,West,267,1.0,-999.0,60,-99.99,,,-99.99,,2013-07-20 19:43:00,
2013-07-20 12:52:00,78.0,63.0,29.86,West,267,1.0,-999.0,60,-99.99,,,-99.99,,2013-07-20 19:52:00,
2013-07-20 13:03:00,78.0,62.0,29.85,West,264,1.0,-999.0,58,-99.99,,,-99.99,,2013-07-20 20:03:00,
2013-07-20 13:12:00,79.0,63.0,29.85,West,264,1.0,-999.0,58,-99.99,,,-99.99,,2013-07-20 20:12:00,
2013-07-20 13:32:00,80.0,63.0,29.84,WSW,237,1.0,-999.0,57,-99.99,,,-99.99,,2013-07-20 20:32:00,
2013-07-20 13:43:00,80.0,63.0,29.84,SW,223,1.0,-999.0,56,-99.99,,,-99.99,,2013-07-20 20:43:00,
2013-07-20 13:52:00,80.0,63.0,29.84,WNW,291,3.0,-999.0,56,-99.99,,,-99.99,,2013-07-20 20:52:00,
2013-07-20 14:02:00,80.0,63.0,29.84,WNW,291,3.0,-999.0,56,-99.99,,,-99.99,,2013-07-20 21:02:00,
2013-07-20 14:12:00,80.0,64.0,29.84,WSW,244,4.0,-999.0,58,-99.99,,,-99.99,,2013-07-20 21:12:00,
2013-07-20 14:33:00,79.0,63.0,29.84,WSW,249,4.0,-999.0,58,-99.99,,,-99.99,,2013-07-20 21:33:00,
2013-07-20 14:43:00,79.0,63.0,29.84,West,267,4.0,-999.0,58,-99.99,,,-99.99,,2013-07-20 21:43:00,
2013-07-20 14:52:00,78.0,63.0,29.85,WSW,256,4.0,-999.0,60,-99.99,,,-99.99,,2013-07-20 21:52:00,
2013-07-20 15:02:00,78.0,63.0,29.85,WSW,256,4.0,-999.0,60,-99.99,,,-99.99,,2013-07-20 22:02:00,
2013-07-20 15:12:00,79.0,63.0,29.85,West,273,3.0,-999.0,59,-99.99,,,-99.99,,2013-07-20 22:12:00,
2013-07-20 15:32:00,78.0,63.0,29.85,WSW,254,4.0,-999.0,60,-99.99,,,-99.99,,2013-07-20 22:32:00,
2013-07-20 15:43:00,78.0,63.0,29.85,WNW,299,4.0,-999.0,61,-99.99,,,-99.99,,2013-07-20 22:43:00,
2013-07-20 15:52:00,78.0,63.0,29.85,WNW,299,4.0,-999.0,61,-99.99,,,-99.99,,2013-07-20 22:52:00,
2013-07-20 16:02:00,78.0,62.0,29.85,West,265,3.0,-999.0,59,-99.99,,,-99.99,,2013-07-20 23:02:00,
2013-07-20 16:13:00,78.0,63.0,29.85,SW,236,3.0,-999.0,60,-99.99,,,-99.99,,2013-07-20 23:13:00,
2013-07-20 16:22:00,76.0,62.0,29.84,WSW,254,3.0,-999.0,62,-99.99,,,-99.99,,2013-07-20 23:22:00,
2013-07-20 16:33:00,76.0,62.0,29.84,WSW,254,3.0,-999.0,62,-99.99,,,-99.99,,2013-07-20 23:33:00,
2013-07-20 16:43:00,77.0,63.0,29.83,SSW,205,4.0,-999.0,62,-99.99,,,-99.99,,2013-07-20 23:43:00,
2013-07-20 16:53:00,76.0,63.0,29.83,West,268,3.0,-999.0,64,-99.99,,,-99.99,,2013-07-20 23:53:00,
2013-07-20 17:03:00,76.0,63.0,29.83,West,268,3.0,-999.0,64,-99.99,,,-99.99,,2013-07-21 00:03:00,
2013-07-20 17:12:00,76.0,63.0,29.82,WNW,290,3.0,-999.0,64,-99.99,,,-99.99,,2013-07-21 00:12:00,
2013-07-20 17:43:00,76.0,63.0,29.80,West,265,1.0,-999.0,65,-99.99,,,-99.99,,2013-07-21 00:43:00,
2013-07-20 18:11:00,74.0,63.0,29.79,SW,232,1.0,-999.0,68,-99.99,,,-99.99,,2013-07-21 01:11:00,
2013-07-20 18:32:00,73.0,62.0,29.79,West,263,1.0,-999.0,69,-99.99,,,-99.99,,2013-07-21 01:32:00,
2013-07-20 18:44:00,-999.0,-99.9,29.80,WSW,237,0.0,-999.0,-999,-99.99,,,-99.99,,2013-07-21 01:44:00,
2013-07-20 18:52:00,72.0,62.0,29.80,WSW,237,1.0,-999.0,71,-99.99,,,-99.99,,2013-07-21 01:52:00,
2013-07-20 19:12:00,71.0,62.0,29.80,WSW,240,1.0,-999.0,73,-99.99,,,-99.99,,2013-07-21 02:12:00,
2013-07-20 19:22:00,70.0,61.0,29.81,WSW,244,1.0,-999.0,74,-99.99,,,-99.99,,2013-07-21 02:22:00,
2013-07-20 19:33:00,70.0,61.0,29.81,WSW,244,1.0,-999.0,74,-99.99,,,-99.99,,2013-07-21 02:33:00,
2013-07-20 19:43:00,69.0,61.0,29.82,West,259,1.0,-999.0,75,-99.99,,,-99.99,,2013-07-21 02:43:00,
2013-07-20 19:52:00,69.0,61.0,29.83,West,262,1.0,-999.0,75,-99.99,,,-99.99,,2013-07-21 02:52:00,
2013-07-20 20:02:00,69.0,61.0,29.83,West,262,1.0,-999.0,75,-99.99,,,-99.99,,2013-07-21 03:02:00,
2013-07-20 20:32:00,68.0,61.0,29.83,West,260,0.0,-999.0,77,-99.99,,,-99.99,,2013-07-21 03:32:00,
2013-07-20 20:52:00,66.0,60.0,29.85,West,261,0.0,-999.0,80,-99.99,,,-99.99,,2013-07-21 03:52:00,
2013-07-20 21:01:00,66.0,60.0,29.85,West,261,0.0,-999.0,80,-99.99,,,-99.99,,2013-07-21 04:01:00,
2013-07-20 21:11:00,66.0,60.0,29.84,West,264,0.0,-999.0,81,-99.99,,,-99.99,,2013-07-21 04:11:00,
2013-07-20 21:32:00,65.0,59.0,29.85,West,263,0.0,-999.0,82,-99.99,,,-99.99,,2013-07-21 04:32:00,
2013-07-20 21:43:00,65.0,59.0,29.85,West,263,0.0,-999.0,82,-99.99,,,-99.99,,2013-07-21 04:43:00,
2013-07-20 21:53:00,65.0,60.0,29.85,West,263,0.0,-999.0,83,-99.99,,,-99.99,,2013-07-21 04:53:00,
2013-07-20 22:01:00,65.0,60.0,29.85,West,263,0.0,-999.0,83,-99.99,,,-99.99,,2013-07-21 05:01:00,
2013-07-20 22:11:00,64.0,59.0,29.86,West,263,0.0,-999.0,83,-99.99,,,-99.99,,2013-07-21 05:11:00,
2013-07-20 22:32:00,64.0,59.0,29.85,West,263,0.0,-999.0,83,-99.99,,,-99.99,,2013-07-21 05:32:00,
2013-07-20 22:42:00,64.0,59.0,29.85,West,263,0.0,-999.0,84,-99.99,,,-99.99,,2013-07-21 05:42:00,
2013-07-20 22:52:00,64.0,59.0,29.85,West,263,0.0,-999.0,84,-99.99,,,-99.99,,2013-07-21 05:52:00,
2013-07-20 23:01:00,64.0,59.0,29.85,West,263,0.0,-999.0,84,-99.99,,,-99.99,,2013-07-21 06:01:00,
2013-07-20 23:11:00,64.0,59.0,29.85,West,263,0.0,-999.0,84,-99.99,,,-99.99,,2013-07-21 06:11:00,
2013-07-20 23:21:00,64.0,59.0,29.85,West,263,0.0,-999.0,84,-99.99,,,-99.99,,2013-07-21 06:21:00,
2013-07-20 23:32:00,64.0,59.0,29.85,West,263,0.0,-999.0,85,-99.99,,,-99.99,,2013-07-21 06:32:00,
2013-07-20 23:42:00,64.0,59.0,29.85,West,263,0.0,-999.0,85,-99.99,,,-99.99,,2013-07-21 06:42:00,
2013-07-20 23:52:00,64.0,59.0,29.85,West,263,0.0,-999.0,85,-99.99,,,-99.99,,2013-07-21 06:52:00,